User: anonymous   Login
Location: Schommer Observatory
(40.5200°N, 74.4500°W)
Time: 18:18:56
(UTC-04:00)
Language:

Tiangong 2 - Orbit

View from above orbital plane
View from above orbital plane
View from above satellite
View from above satellite

Ground track
Ground track

The orbit data is extracted from the following two-line orbital elements,

1 41765U 16057A   19111.57609818  .00004056  00000-0  50824-4 0  9997
2 41765  42.7839 304.5497 0008457 241.7293 175.7403 15.61293803148190
Epoch (UTC): 21 April 2019 13:49:34
Eccentricity: 0.0008457
inclination: 42.7839°
perigee height: 378 km
apogee height: 389 km
right ascension of ascending node: 304.5497°
argument of perigee: 241.7293°
revolutions per day: 15.61293803
mean anomaly at epoch: 175.7403°
orbit number at epoch: 14819

The dashed part of the orbit path shows where the satellite is in the earth's shadow,  

DLR